This is the latest recevied weather packets stored in our database for station/object AB8Y-13. If no packets are shown the sender has not sent any weather packets the latest 10 day(s).
| Time | Temp. | Humidity | Pressure | Rain* | Wind** | Luminosity | Snow |
|---|---|---|---|---|---|---|---|
| 1777659424 | 8.89° C | 49% | 1014.5 hPa | 0 mm | - | 395 W/m² | - |
| 1777659121 | 7.78° C | 50% | 1014.6 hPa | 0 mm | - | 504 W/m² | - |
| 1777658819 | 7.78° C | 51% | 1014.7 hPa | 0 mm | - | 286 W/m² | - |
| 1777658515 | 8.33° C | 52% | 1014.5 hPa | 0 mm | - | 174 W/m² | - |
| 1777658212 | 8.89° C | 56% | 1014.5 hPa | 0 mm | - | 215 W/m² | - |
| 1777657909 | 8.89° C | 51% | 1014.4 hPa | 0 mm | - | 426 W/m² | - |
| 1777657605 | 8.89° C | 50% | 1014.5 hPa | 0 mm | - | 358 W/m² | - |
| 1777657303 | 8.89° C | 48% | 1014.6 hPa | 0 mm | - | 279 W/m² | - |
| 1777657000 | 8.33° C | 52% | 1014.4 hPa | 0 mm | - | 458 W/m² | - |
| 1777656697 | 7.78° C | 55% | 1014.6 hPa | 0 mm | - | 358 W/m² | - |
| 1777656393 | 8.33° C | 53% | 1014.8 hPa | 0 mm | - | 294 W/m² | - |
| 1777656088 | 9.44° C | 50% | 1014.6 hPa | 0 mm | - | 288 W/m² | - |
| 1777655784 | 8.89° C | 55% | 1014.6 hPa | 0 mm | - | 784 W/m² | - |
| 1777655482 | 8.33° C | 52% | 1014.6 hPa | 0 mm | - | 402 W/m² | - |
| 1777655179 | 8.33° C | 55% | 1014.7 hPa | 0 mm | - | 322 W/m² | - |
| 1777654875 | 8.33° C | 52% | 1014.6 hPa | 0 mm | - | 284 W/m² | - |
| 1777654573 | 8.89° C | 50% | 1014.8 hPa | 0 mm | - | 211 W/m² | - |
| 1777654270 | 8.89° C | 53% | 1014.8 hPa | 0 mm | - | 286 W/m² | - |
| 1777653968 | 9.44° C | 51% | 1014.8 hPa | 0 mm | - | 338 W/m² | - |
| 1777653665 | 8.89° C | 51% | 1014.8 hPa | 0 mm | - | 581 W/m² | - |
| 1777653361 | 8.33° C | 54% | 1015 hPa | 0 mm | - | 376 W/m² | - |
| 1777653058 | 8.89° C | 53% | 1014.8 hPa | 0 mm | - | 282 W/m² | - |
| 1777652754 | 9.44° C | 51% | 1014.7 hPa | 0 mm | - | 526 W/m² | - |
| 1777652451 | 8.89° C | 52% | 1014.9 hPa | 0 mm | - | 1052 W/m² | - |
| 1777652149 | 8.33° C | 54% | 1014.9 hPa | 0 mm | - | 366 W/m² | - |
* Rain latest hour (hover to see other rain measurements)
** Current wind speed in m/s (hover to see current wind gust speed)